Wind_Speed
25 24 24 24 26 27 28 28 29 27 27 27 29 30 30 30 32 33 35 38 41 44 46 48 50 51 52 53 53 52 51 50 49 48 47 45 45 44 43 41 41 40 40 39
25 25 26 25 26 27 28 29 29 29 27 28 30 31 32 33 33 34 35 37 41 43 44 47 49 50 51 52 53 52 52 51 49 49 48 47 46 45 44 43 42 41 40 40
25 25 26 26 24 25 27 28 29 30 28 29 31 31 31 33 34 35 36 37 40 43 44 45 47 48 50 51 52 52 51 51 50 49 49 48 48 47 45 44 43 41 41 40
27 26 26 24 25 26 28 28 29 30 29 30 30 32 33 34 34 36 37 38 40 42 44 45 46 47 49 50 51 52 51 51 49 48 49 48 48 47 46 45 43 42 41 40
27 27 25 24 24 26 27 27 28 29 29 29 29 32 33 34 35 36 38 38 40 42 44 46 46 47 48 49 50 50 51 50 50 49 49 48 47 46 46 45 44 42 40 40
28 28 27 24 25 26 27 27 27 29 28 29 29 31 32 34 36 36 37 39 40 41 43 45 46 47 49 49 49 49 50 50 49 50 49 48 47 46 45 44 43 42 40 39
29 29 28 25 25 26 27 26 27 29 29 29 28 30 32 35 36 37 38 39 40 41 43 44 45 46 48 49 50 50 50 50 51 50 49 48 47 46 44 44 43 41 40 39
31 31 29 27 27 27 27 27 27 28 29 29 29 29 31 34 36 37 38 40 40 41 43 44 44 46 46 48 49 50 51 50 50 50 49 48 47 46 44 43 41 39 38 37
32 31 30 29 28 28 28 29 29 29 30 29 29 30 31 33 36 38 39 40 41 41 42 43 44 45 46 48 49 49 50 51 50 49 48 47 46 45 43 42 40 39 37 36
33 30 30 30 29 28 29 30 30 30 30 29 30 30 31 32 34 37 39 40 41 41 43 43 44 45 46 48 49 49 49 49 49 49 48 46 45 44 43 41 40 38 37 36
33 31 31 30 28 28 29 30 30 30 30 30 30 30 31 31 32 35 37 39 40 40 42 43 45 45 45 46 47 47 48 48 49 48 48 47 45 44 42 40 39 38 37 36
33 32 32 29 28 29 30 29 30 30 30 31 31 30 31 32 32 32 35 37 39 40 40 43 45 46 45 45 46 46 46 47 47 47 46 45 44 43 41 39 39 38 37 36
33 32 31 29 29 29 30 30 30 31 30 30 30 30 31 32 33 33 34 35 36 38 39 41 43 45 45 45 45 45 45 46 45 45 45 45 43 41 40 38 38 37 37 35
33 32 30 29 28 28 29 29 30 30 29 29 28 29 30 31 31 32 34 34 35 36 38 39 41 43 44 44 44 44 44 45 45 45 45 44 43 41 40 38 36 36 35 34
31 30 29 28 27 27 27 27 28 28 28 28 28 28 29 30 30 31 33 34 34 36 38 39 40 41 43 43 43 43 43 44 44 44 44 43 41 40 38 37 36 35 34 33
30 29 28 28 27 26 25 25 26 27 27 27 28 27 27 28 29 30 32 33 33 35 37 39 40 40 41 42 43 43 42 42 42 43 42 41 40 39 37 36 35 34 33 31
29 28 28 28 27 26 25 25 25 25 26 27 27 28 27 28 29 28 30 32 33 34 36 38 40 41 40 40 41 42 41 41 41 41 40 40 40 39 37 36 35 33 32 30
28 28 28 28 28 27 27 26 25 24 25 25 26 27 27 28 29 29 29 30 32 33 35 37 39 40 40 39 39 39 40 40 40 40 40 39 38 38 37 35 34 33 31 30
28 28 28 28 28 28 28 26 26 25 25 24 25 26 27 27 29 29 29 29 31 32 34 36 38 39 40 40 39 38 38 39 38 38 38 38 38 37 36 35 34 32 30 29
29 29 29 29 29 28 28 27 27 26 26 25 25 26 27 28 29 30 30 29 29 31 33 35 37 38 39 39 39 38 37 37 36 36 36 36 36 35 34 34 33 32 31 29
29 29 29 29 28 28 28 29 29 28 27 27 26 26 27 28 29 30 30 29 29 30 32 34 36 37 38 38 38 37 37 36 35 36 35 35 35 34 33 33 32 32 30 29
30 30 29 29 28 28 29 29 29 29 29 28 27 26 27 29 30 30 30 30 29 30 32 33 35 37 38 38 37 36 36 37 36 35 34 34 34 34 33 32 31 30 29 28
29 29 29 28 28 28 28 28 29 29 29 28 27 27 26 27 29 30 30 30 29 30 31 33 34 36 37 37 36 36 36 37 36 35 34 33 34 34 33 31 31 30 29 27
28 28 27 27 27 28 28 29 29 29 29 29 28 27 27 27 27 29 30 30 30 30 31 33 35 36 37 37 37 36 36 36 36 35 34 33 33 32 31 30 30 29 28 27
28 27 26 26 26 27 28 28 28 28 28 28 27 27 26 26 27 28 29 29 30 31 31 33 34 35 36 36 36 36 36 35 35 33 32 32 32 31 31 30 29 28 27 26
27 27 26 26 26 26 26 26 26 27 26 26 26 26 26 26 26 27 29 29 30 30 31 32 33 33 34 35 36 36 36 35 34 33 32 31 31 31 30 29 28 27 26 25
27 26 25 25 24 24 24 24 24 25 26 26 26 26 26 26 26 27 28 29 30 30 31 32 33 33 34 34 34 35 34 34 34 33 32 31 31 30 29 28 26 25 25 24
Wind_Direction
290 287 285 277 267 259 257 256 254 252 250 246 244 241 238 236 234 232 231 226 223 222 219 219 218 218 218 218 218 219 221 222 223 225 225 226 228 231 233 236 239 242 245 249
289 286 284 278 270 263 260 258 258 255 250 246 245 243 241 237 234 232 230 227 224 222 220 219 219 219 219 218 219 220 222 223 223 225 225 227 228 230 233 236 238 241 245 248
290 287 282 279 272 265 262 260 260 256 250 245 242 241 239 236 234 231 230 227 224 224 222 221 220 220 220 221 220 221 223 223 223 224 225 226 228 230 234 236 239 242 245 249
292 288 282 282 272 267 264 262 259 258 253 247 243 240 239 237 233 230 228 225 223 223 223 222 222 222 221 222 222 222 223 223 223 223 224 225 229 231 233 236 239 242 245 248
292 289 286 283 277 270 265 262 260 260 254 248 245 239 238 237 234 229 226 224 222 222 222 221 222 223 223 223 224 224 224 223 224 225 225 227 229 231 234 236 238 242 246 248
291 290 289 289 279 269 265 263 260 258 254 252 249 241 237 236 233 229 226 223 221 221 220 221 222 223 224 224 224 225 225 225 225 225 226 228 231 233 234 237 240 242 245 248
288 289 289 289 282 271 267 265 262 259 255 255 251 243 238 235 234 230 225 222 221 220 221 221 222 223 224 223 224 225 225 226 226 227 228 229 231 234 235 238 239 241 245 248
286 286 288 286 280 272 267 265 264 260 258 256 252 246 241 238 235 231 227 223 220 219 221 222 222 224 224 223 223 224 225 226 226 227 228 229 231 233 235 238 239 241 245 247
285 284 284 282 278 272 267 265 264 262 258 256 252 245 243 240 235 232 228 226 223 222 222 224 224 224 223 222 222 223 225 226 227 227 227 229 231 233 236 237 239 242 245 247
285 283 280 277 273 270 268 265 264 263 259 257 253 248 245 241 236 233 230 229 227 225 224 224 225 224 224 223 223 224 225 227 227 228 228 229 231 233 235 237 239 241 243 247
286 282 279 276 270 267 269 269 266 264 259 255 253 250 246 240 237 233 230 230 228 228 227 225 224 224 223 223 224 225 226 226 228 228 229 229 231 232 233 235 238 240 243 246
284 281 277 273 268 268 268 268 267 264 258 257 255 250 244 240 238 235 231 230 229 229 228 227 226 225 224 224 224 224 225 226 227 228 228 229 229 230 232 235 237 240 242 244
283 281 277 272 270 269 268 267 267 264 260 257 254 250 245 240 237 235 232 230 230 229 228 226 225 225 225 226 225 224 224 224 225 226 226 226 227 228 230 233 236 238 240 242
281 279 277 272 270 269 269 267 265 263 260 256 253 248 244 239 237 236 233 231 230 228 226 225 224 224 224 224 224 224 223 223 223 224 224 225 226 228 229 231 233 236 238 241
280 278 276 272 269 267 268 267 264 262 258 254 251 245 242 238 237 236 234 232 230 228 227 225 223 222 221 221 222 222 222 223 223 222 223 224 224 226 228 228 230 233 236 240
276 274 272 272 269 267 266 266 263 261 256 251 247 244 240 237 236 236 234 231 229 227 225 224 222 219 219 220 220 221 222 222 222 222 223 223 223 224 225 225 229 231 234 238
273 271 269 269 267 265 265 265 264 260 254 248 244 241 239 236 234 234 233 231 229 227 224 222 220 219 218 218 218 218 219 220 220 221 222 223 224 224 224 226 228 230 233 236
273 270 268 267 266 263 262 263 263 260 255 250 245 242 239 234 231 231 231 229 228 227 224 221 219 217 218 217 216 216 218 219 220 221 220 221 222 223 225 226 227 230 234 237
273 271 268 267 267 263 261 260 260 257 254 251 246 243 240 236 232 230 229 229 228 225 223 222 220 218 216 216 216 215 216 217 218 218 219 220 220 222 224 226 230 232 235 238
273 271 269 267 266 262 259 257 255 254 251 250 247 242 240 237 234 230 227 227 226 224 222 220 217 216 215 215 216 215 215 215 214 216 218 220 220 222 225 229 231 233 236 239
273 272 271 268 265 261 259 256 254 251 249 249 246 243 240 237 234 231 227 226 226 222 218 215 213 212 212 212 213 213 213 212 214 216 218 220 222 224 226 228 229 232 234 237
274 273 272 269 265 262 259 257 254 251 249 248 246 243 240 236 234 231 228 226 224 221 215 212 210 209 209 210 211 212 212 212 214 216 218 220 222 224 224 226 228 230 232 236
276 274 272 268 264 261 257 255 253 249 247 246 244 242 239 236 233 229 226 224 221 217 213 210 208 209 208 209 210 211 212 213 215 217 218 220 221 222 223 225 227 229 231 235
278 276 272 268 264 260 256 253 250 248 245 243 242 240 235 231 229 226 224 222 219 215 212 209 209 209 208 208 209 209 210 210 212 214 216 219 220 220 221 223 225 227 229 233
278 276 272 268 265 260 255 250 248 245 243 241 239 235 230 227 224 221 220 218 216 214 212 209 209 209 207 205 206 207 208 209 210 211 214 216 217 218 220 222 223 225 229 233
276 274 270 266 264 260 254 249 246 241 238 235 232 230 227 224 221 218 216 215 214 212 209 206 206 206 205 205 207 207 207 208 208 210 213 215 217 218 219 220 222 225 228 233
276 273 268 262 260 257 251 246 241 236 233 231 228 227 226 223 219 216 213 212 211 210 208 206 206 205 204 205 206 207 207 207 208 210 213 216 217 217 218 219 221 225 229 232
Height
5516 5514 5512 5511 5511 5512 5511 5511 5512 5515 5517 5521 5522 5525 5527 5530 5534 5538 5542 5547 5553 5560 5568 5575 5584 5593 5601 5610 5618 5626 5634 5641 5649 5656 5662 5668 5673 5678 5683 5687 5691 5694 5697 5700
5510 5509 5506 5505 5506 5506 5505 5506 5506 5507 5510 5513 5515 5517 5520 5523 5526 5531 5535 5540 5546 5553 5560 5567 5576 5584 5592 5601 5609 5617 5625 5632 5640 5646 5653 5659 5664 5669 5674 5678 5682 5685 5688 5691
5504 5503 5500 5500 5501 5500 5499 5500 5500 5500 5504 5506 5507 5510 5512 5515 5519 5523 5528 5533 5539 5545 5552 5560 5568 5576 5585 5593 5600 5608 5616 5623 5630 5636 5643 5649 5655 5660 5665 5669 5673 5676 5680 5682
5496 5496 5494 5497 5494 5493 5492 5493 5492 5493 5495 5497 5499 5502 5504 5508 5512 5516 5520 5526 5532 5538 5545 5552 5560 5568 5576 5584 5591 5599 5607 5614 5620 5627 5633 5639 5645 5650 5655 5660 5664 5668 5671 5674
5490 5487 5487 5489 5488 5486 5485 5486 5487 5486 5487 5489 5491 5493 5497 5501 5504 5508 5513 5518 5524 5530 5537 5544 5552 5560 5568 5575 5582 5590 5597 5604 5611 5617 5624 5630 5635 5641 5646 5650 5655 5658 5662 5665
5483 5480 5479 5483 5481 5478 5478 5479 5480 5478 5479 5481 5483 5486 5490 5493 5496 5500 5505 5511 5517 5523 5529 5536 5544 5551 5558 5566 5573 5581 5588 5595 5602 5608 5614 5620 5626 5631 5636 5641 5645 5649 5653 5656
5476 5472 5472 5475 5472 5471 5472 5473 5471 5471 5472 5473 5475 5478 5481 5484 5488 5493 5497 5503 5509 5515 5521 5528 5535 5542 5549 5556 5564 5572 5578 5585 5592 5599 5605 5611 5617 5622 5627 5632 5636 5640 5644 5647
5469 5466 5468 5467 5464 5464 5463 5463 5463 5463 5464 5465 5468 5470 5472 5476 5480 5484 5489 5495 5500 5507 5513 5519 5526 5533 5540 5547 5554 5561 5569 5576 5582 5589 5596 5602 5608 5613 5618 5623 5627 5632 5635 5639
5461 5462 5460 5457 5456 5455 5455 5455 5455 5456 5457 5458 5460 5462 5465 5468 5472 5476 5481 5486 5492 5498 5504 5511 5517 5523 5530 5537 5544 5551 5559 5566 5572 5579 5586 5592 5598 5604 5609 5614 5619 5623 5627 5631
5451 5452 5450 5448 5447 5447 5446 5447 5447 5447 5449 5450 5451 5454 5456 5459 5463 5467 5472 5477 5483 5489 5495 5501 5507 5514 5521 5528 5535 5542 5549 5556 5563 5570 5576 5583 5589 5595 5600 5605 5610 5615 5619 5623
5442 5442 5440 5440 5438 5438 5438 5438 5439 5439 5440 5441 5443 5445 5448 5451 5455 5458 5463 5468 5473 5479 5485 5492 5498 5505 5512 5518 5525 5532 5540 5547 5553 5560 5567 5574 5580 5586 5592 5598 5603 5607 5611 5615
5434 5432 5430 5430 5430 5430 5429 5430 5430 5430 5432 5433 5435 5437 5439 5442 5446 5450 5454 5459 5464 5470 5476 5482 5488 5495 5502 5509 5516 5523 5530 5537 5544 5551 5558 5565 5571 5577 5583 5589 5593 5598 5603 5606
5423 5422 5421 5421 5421 5420 5420 5421 5421 5421 5423 5425 5426 5428 5430 5434 5437 5441 5446 5450 5455 5461 5467 5473 5479 5486 5493 5499 5506 5514 5521 5528 5535 5542 5549 5555 5562 5569 5575 5580 5585 5590 5594 5598
5414 5413 5412 5412 5412 5412 5411 5411 5412 5413 5414 5415 5417 5419 5422 5425 5429 5433 5437 5441 5446 5452 5458 5464 5470 5477 5484 5490 5497 5504 5511 5519 5526 5533 5540 5547 5553 5560 5566 5572 5577 5582 5587 5590
5405 5403 5403 5403 5403 5403 5403 5403 5404 5404 5405 5407 5408 5411 5414 5417 5421 5425 5429 5433 5438 5443 5449 5455 5461 5468 5474 5481 5488 5495 5502 5510 5517 5524 5532 5538 5545 5552 5558 5564 5570 5575 5579 5583
5396 5395 5395 5395 5395 5395 5395 5395 5396 5397 5397 5399 5401 5403 5406 5409 5413 5417 5421 5425 5430 5435 5441 5446 5453 5460 5466 5473 5480 5487 5494 5501 5508 5516 5523 5530 5537 5544 5550 5556 5562 5567 5572 5576
5387 5387 5386 5386 5387 5387 5387 5388 5388 5389 5390 5391 5393 5396 5398 5402 5406 5409 5413 5417 5422 5427 5432 5438 5445 5451 5458 5465 5472 5479 5486 5493 5501 5508 5516 5523 5530 5536 5543 5549 5554 5559 5564 5568
5378 5378 5378 5378 5378 5379 5380 5380 5380 5381 5382 5384 5386 5388 5391 5394 5398 5402 5406 5410 5414 5419 5425 5430 5436 5443 5450 5457 5464 5471 5479 5486 5493 5501 5508 5515 5522 5528 5535 5541 5546 5551 5556 5560
5369 5369 5369 5368 5369 5370 5371 5372 5373 5374 5375 5376 5378 5381 5384 5387 5390 5394 5399 5403 5407 5412 5417 5423 5429 5436 5443 5450 5457 5464 5471 5479 5486 5494 5501 5508 5514 5521 5527 5534 5539 5544 5548 5553
5360 5360 5359 5359 5359 5360 5362 5363 5364 5366 5367 5369 5371 5374 5377 5380 5383 5387 5391 5396 5400 5404 5410 5415 5421 5428 5435 5442 5450 5457 5465 5472 5479 5487 5494 5501 5507 5514 5520 5526 5531 5536 5541 5546
5351 5350 5349 5349 5350 5351 5352 5354 5355 5357 5359 5361 5363 5366 5369 5372 5376 5380 5384 5388 5393 5397 5402 5408 5414 5421 5428 5436 5443 5451 5458 5466 5473 5480 5487 5494 5500 5506 5513 5518 5524 5529 5534 5538
5341 5340 5339 5339 5340 5341 5342 5344 5346 5348 5350 5353 5355 5358 5361 5364 5368 5372 5376 5381 5385 5390 5395 5401 5408 5415 5422 5430 5437 5445 5452 5460 5467 5474 5481 5487 5494 5500 5506 5511 5517 5522 5527 5531
5331 5330 5329 5329 5329 5331 5332 5334 5336 5338 5341 5344 5346 5349 5352 5356 5360 5364 5369 5373 5377 5383 5388 5395 5402 5408 5415 5423 5431 5438 5446 5453 5461 5468 5474 5481 5487 5493 5499 5504 5510 5515 5520 5524
5321 5320 5320 5319 5319 5321 5323 5324 5326 5328 5331 5334 5337 5341 5344 5348 5352 5356 5360 5365 5370 5376 5382 5388 5395 5402 5409 5417 5425 5432 5440 5447 5454 5461 5468 5474 5481 5486 5492 5498 5503 5508 5513 5517
5311 5311 5310 5310 5310 5311 5313 5314 5317 5319 5322 5325 5329 5332 5335 5339 5344 5348 5353 5358 5363 5369 5375 5381 5388 5395 5402 5410 5418 5426 5433 5441 5448 5454 5461 5468 5474 5480 5485 5491 5496 5501 5506 5510
5302 5302 5301 5301 5301 5301 5303 5305 5308 5310 5313 5317 5321 5324 5328 5332 5336 5341 5346 5351 5357 5363 5369 5375 5382 5389 5397 5404 5412 5420 5427 5434 5441 5449 5455 5461 5467 5473 5479 5484 5490 5494 5499 5503
5293 5292 5292 5292 5292 5293 5294 5297 5299 5302 5305 5309 5313 5317 5321 5325 5330 5335 5340 5345 5351 5357 5363 5370 5376 5384 5391 5398 5406 5413 5421 5428 5436 5443 5449 5455 5461 5467 5473 5478 5483 5488 5492 5496